Location: Lake Almanor
(40.2485°N, 121.1442°W)
Time: 02:01:41
(UTC-08:00)

STARLINK-1125 - Pass Details

Date: 31 January 2020
Orbit: 348 x 350 km, 53.0° (Epoch: 22 February)

Event Time Altitude Azimuth Distance (km) Brightness Sun altitude
Rises 18:19:29 0° 314° (NW) 2,161 7.2 -11.3°
Reaches altitude 10° 18:21:34 10° 321° (NW) 1,316 5.9 -11.7°
Maximum altitude 18:24:22 42° 35° (NE) 518 3.1 -12.2°
Enters shadow 18:25:46 23° 93° (E) 790 3.8 -12.5°
